Location: Unspecified
(0.0000°N, 0.0000°E)
Time: 08:53:09
(UTC+00:00)

ATLAS 5 CENTAUR DEB - Pass Details

Date: 22 December 2025
Orbit: 7978 x 35827 km, 19.5° (Epoch: 10 February)

Event Time Altitude Azimuth Distance (km) Brightness Sun altitude
Rises 22:25:04 0° 268° (W) 16,903 ? -57.4°
Reaches altitude 10° 22:38:40 10° 263° (W) 17,591 ? -59.6°
Maximum altitude 10:06:23 61° 347° (NNW) 10,448 ? 54.1°
Drops below altitude 10° 10:52:13 10° 73° (ENE) 11,985 ? 61.5°
Sets 11:01:40 0° 79° (ENE) 13,561 ? 62.8°
